| time (UTC) | temp C | wind direction | speed KPH | gust KPH | rain 1hr cm | rain 24hr cm | rain mn cm | humidity % | barometer mb |
| 20260906154523 | 27 | 11 | 0.0 | 14.5 | 0.00 | 0.00 | 0.00 | 72 | 1015.9 |
| 20260906153027 | 27 | 325 | 3.2 | 14.5 | 0.00 | 0.00 | 0.00 | 74 | 1015.6 |
| 20260906151518 | 27 | 13 | 3.2 | 9.7 | 0.00 | 0.00 | 0.00 | 73 | 1015.4 |
| 20260906150017 | 27 | 86 | 4.8 | 12.9 | 0.00 | 0.00 | 0.00 | 75 | 1015.2 |
| 20260906144522 | 26 | 18 | 1.6 | 11.3 | 0.00 | 0.00 | 0.00 | 75 | 1015.1 |
| 20260906143012 | 26 | 25 | 0.0 | 11.3 | 0.00 | 0.00 | 0.00 | 76 | 1015.2 |
| 20260906141514 | 26 | 53 | 1.6 | 8.0 | 0.00 | 0.00 | 0.00 | 78 | 1015.0 |
| 20260906140016 | 25 | 96 | 0.0 | 9.7 | 0.00 | 0.00 | 0.00 | 80 | 1014.9 |
| 20260906134524 | 25 | 86 | 3.2 | 8.0 | 0.00 | 0.00 | 0.00 | 80 | 1014.9 |
| 20260906133008 | 25 | 340 | 1.6 | 9.7 | 0.00 | 0.00 | 0.00 | 81 | 1015.1 |
| 20260906131507 | 24 | 319 | 1.6 | 8.0 | 0.00 | 0.00 | 0.00 | 83 | 1015.0 |
| 20260906130010 | 23 | 341 | 0.0 | 6.4 | 0.00 | 0.00 | 0.00 | 85 | 1015.1 |
| 20260906124506 | 23 | 319 | 1.6 | 8.0 | 0.00 | 0.00 | 0.00 | 86 | 1015.0 |
| 20260906123004 | 23 | 351 | 0.0 | 6.4 | 0.00 | 0.00 | 0.00 | 88 | 1014.9 |
| 20260906121504 | 22 | 343 | 0.0 | 3.2 | 0.00 | 0.00 | 0.00 | 90 | 1014.7 |
| 20260906120002 | 22 | 329 | 0.0 | 1.6 | 0.00 | 0.00 | 0.00 | 91 | 1014.5 |
| 20260906114509 | 22 | 11 | 0.0 | 1.6 | 0.00 | 0.00 | 0.00 | 90 | 1014.2 |
| 20260906113005 | 22 | 24 | 0.0 | 1.6 | 0.00 | 0.00 | 0.00 | 90 | 1014.2 |
| 20260906111504 | 22 | 335 | 0.0 | 0.0 | 0.00 | 0.00 | 0.00 | 90 | 1014.1 |
| 20260906110003 | 22 | 351 | 0.0 | 1.6 | 0.00 | 0.00 | 0.00 | 90 | 1014.2 |
| 20260906104627 | 22 | 339 | 0.0 | 1.6 | 0.00 | 0.00 | 0.00 | 90 | 1013.9 |
| 20260906103056 | 23 | 13 | 0.0 | 1.6 | 0.00 | 0.00 | 0.00 | 90 | 1013.7 |
| 20260906101554 | 23 | 340 | 0.0 | 1.6 | 0.00 | 0.00 | 0.00 | 90 | 1013.7 |
| 20260906100053 | 23 | 1 | 0.0 | 3.2 | 0.00 | 0.00 | 0.00 | 89 | 1013.6 |
| 20260906094551 | 23 | 72 | 0.0 | 6.4 | 0.00 | 0.00 | 0.00 | 89 | 1013.5 |
| 20260906093105 | 23 | 58 | 0.0 | 1.6 | 0.00 | 0.00 | 0.00 | 89 | 1013.7 |
| 20260906091548 | 24 | 342 | 0.0 | 3.2 | 0.00 | 0.00 | 0.00 | 89 | 1013.6 |
| 20260906090045 | 24 | 51 | 0.0 | 1.6 | 0.00 | 0.00 | 0.00 | 90 | 1013.4 |
| 20260906084543 | 24 | 236 | 0.0 | 3.2 | 0.00 | 0.00 | 0.00 | 90 | 1013.3 |
| 20260906083044 | 25 | 359 | 0.0 | 4.8 | 0.00 | 0.00 | 0.00 | 90 | 1013.0 |
| 20260906081540 | 25 | 7 | 0.0 | 0.0 | 0.00 | 0.00 | 0.00 | 90 | 1012.9 |
| 20260906080040 | 25 | 113 | 0.0 | 1.6 | 0.00 | 0.00 | 0.00 | 89 | 1012.9 |
| 20260906074537 | 25 | 331 | 0.0 | 1.6 | 0.00 | 0.00 | 0.00 | 89 | 1013.0 |
| 20260906073037 | 25 | 347 | 0.0 | 0.0 | 0.00 | 0.00 | 0.00 | 88 | 1013.0 |
| 20260906071536 | 25 | 346 | 0.0 | 0.0 | 0.00 | 0.00 | 0.00 | 88 | 1013.1 |
| 20260906070035 | 25 | 346 | 0.0 | 0.0 | 0.00 | 0.00 | 0.00 | 87 | 1012.9 |
| 20260906064533 | 25 | 346 | 0.0 | 0.0 | 0.00 | 0.00 | 0.00 | 86 | 1012.9 |
| 20260906063032 | 25 | 346 | 0.0 | 0.0 | 0.00 | 0.00 | 0.00 | 85 | 1013.2 |
| 20260906061530 | 26 | 346 | 0.0 | 0.0 | 0.00 | 0.00 | 0.00 | 84 | 1013.2 |
| 20260906060031 | 25 | 346 | 0.0 | 0.0 | 0.00 | 0.00 | 0.00 | 84 | 1013.2 |
| 20260906054528 | 26 | 347 | 0.0 | 0.0 | 0.00 | 0.00 | 0.00 | 82 | 1013.1 |
| 20260906053027 | 26 | 347 | 0.0 | 0.0 | 0.00 | 0.00 | 0.00 | 81 | 1013.2 |
| 20260906051529 | 26 | 347 | 0.0 | 0.0 | 0.00 | 0.00 | 0.00 | 81 | 1013.2 |
| 20260906050026 | 26 | 347 | 0.0 | 0.0 | 0.00 | 0.00 | 0.00 | 79 | 1013.0 |
| 20260906044522 | 26 | 347 | 0.0 | 0.0 | 0.00 | 0.00 | 0.00 | 78 | 1013.0 |
| 20260906043022 | 26 | 347 | 0.0 | 0.0 | 0.00 | 0.00 | 0.00 | 76 | 1012.8 |
| 20260906041525 | 27 | 347 | 0.0 | 0.0 | 0.00 | 0.00 | 0.00 | 75 | 1012.7 |
| 20260906040020 | 27 | 347 | 0.0 | 0.0 | 0.00 | 0.00 | 0.00 | 74 | 1012.6 |
| 20260906034520 | 27 | 347 | 0.0 | 0.0 | 0.00 | 0.00 | 0.00 | 73 | 1012.5 |
| 20260906033019 | 27 | 347 | 0.0 | 0.0 | 0.00 | 0.00 | 0.00 | 70 | 1012.5 |
| 20260906031518 | 28 | 347 | 0.0 | 0.0 | 0.00 | 0.00 | 0.00 | 70 | 1012.4 |
| 20260906030018 | 28 | 347 | 0.0 | 0.0 | 0.00 | 0.00 | 0.00 | 70 | 1012.2 |
| 20260906024517 | 28 | 347 | 0.0 | 1.6 | 0.00 | 0.00 | 0.00 | 70 | 1012.1 |
| 20260906023021 | 28 | 349 | 0.0 | 0.0 | 0.00 | 0.00 | 0.00 | 70 | 1011.7 |
| 20260906021517 | 28 | 360 | 0.0 | 0.0 | 0.00 | 0.00 | 0.00 | 69 | 1011.5 |
| 20260906020016 | 28 | 360 | 0.0 | 0.0 | 0.00 | 0.00 | 0.00 | 69 | 1011.4 |
| 20260906014521 | 28 | 360 | 0.0 | 0.0 | 0.00 | 0.00 | 0.00 | 68 | 1011.1 |
| 20260906013023 | 28 | 360 | 0.0 | 0.0 | 0.00 | 0.00 | 0.00 | 66 | 1011.0 |
| 20260906011519 | 30 | 360 | 0.0 | 0.0 | 0.00 | 0.00 | 0.00 | 63 | 1010.9 |
| 20260906010014 | 30 | 360 | 0.0 | 0.0 | 0.00 | 0.00 | 0.00 | 60 | 1010.8 |
| 20260906004512 | 31 | 340 | 0.0 | 1.6 | 0.00 | 0.00 | 0.00 | 59 | 1010.6 |
| 20260906003012 | 31 | 337 | 0.0 | 1.6 | 0.00 | 0.00 | 0.00 | 58 | 1010.6 |
| 20260906001510 | 32 | 337 | 0.0 | 1.6 | 0.00 | 0.00 | 0.00 | 54 | 1010.7 |
| 20260906000010 | 33 | 326 | 0.0 | 6.4 | 0.00 | 0.00 | 0.00 | 52 | 1010.7 |
| 20260905234509 | 33 | 333 | 1.6 | 6.4 | 0.00 | 0.00 | 0.00 | 50 | 1010.7 |
| 20260905233014 | 34 | 338 | 3.2 | 6.4 | 0.00 | 0.00 | 0.00 | 48 | 1010.7 |
| 20260905231505 | 35 | 342 | 1.6 | 8.0 | 0.00 | 0.00 | 0.00 | 47 | 1010.7 |
| 20260905230004 | 35 | 335 | 1.6 | 17.7 | 0.00 | 0.00 | 0.00 | 46 | 1010.9 |
| 20260905224503 | 35 | 344 | 0.0 | 3.2 | 0.00 | 0.00 | 0.00 | 47 | 1010.8 |
| 20260905223005 | 36 | 1 | 0.0 | 6.4 | 0.00 | 0.00 | 0.00 | 44 | 1010.5 |
| 20260905221504 | 37 | 68 | 0.0 | 3.2 | 0.00 | 0.00 | 0.00 | 41 | 1010.5 |
| 20260905220101 | 38 | 18 | 1.6 | 3.2 | 0.00 | 0.00 | 0.00 | 40 | 1010.6 |
| 20260905214601 | 36 | 328 | 1.6 | 4.8 | 0.00 | 0.00 | 0.00 | 44 | 1010.7 |
| 20260905213059 | 36 | 52 | 1.6 | 6.4 | 0.00 | 0.00 | 0.00 | 43 | 1010.7 |
| 20260905211602 | 36 | 307 | 0.0 | 9.7 | 0.00 | 0.00 | 0.00 | 43 | 1010.6 |
| 20260905210058 | 35 | 138 | 0.0 | 4.8 | 0.00 | 0.00 | 0.00 | 49 | 1010.8 |
| 20260905204555 | 35 | 186 | 1.6 | 6.4 | 0.00 | 0.00 | 0.00 | 48 | 1011.0 |
| 20260905203100 | 35 | 191 | 3.2 | 9.7 | 0.00 | 0.00 | 0.00 | 47 | 1011.0 |
| 20260905201555 | 35 | 148 | 4.8 | 8.0 | 0.00 | 0.00 | 0.00 | 52 | 1011.2 |
| 20260905200101 | 35 | 143 | 3.2 | 8.0 | 0.00 | 0.00 | 0.00 | 48 | 1011.3 |
| 20260905194551 | 36 | 152 | 1.6 | 4.8 | 0.00 | 0.00 | 0.00 | 47 | 1011.3 |
| 20260905193105 | 36 | 158 | 1.6 | 6.4 | 0.00 | 0.00 | 0.00 | 42 | 1011.7 |
| 20260905191548 | 36 | 327 | 4.8 | 12.9 | 0.00 | 0.00 | 0.00 | 39 | 1011.9 |
| 20260905190047 | 38 | 315 | 6.4 | 11.3 | 0.00 | 0.00 | 0.00 | 36 | 1011.7 |
| 20260905184545 | 37 | 32 | 1.6 | 6.4 | 0.00 | 0.00 | 0.00 | 38 | 1012.1 |
| 20260905183145 | 37 | 311 | 4.8 | 12.9 | 0.00 | 0.00 | 0.00 | 39 | 1012.3 |
| 20260905181542 | 37 | 319 | 4.8 | 9.7 | 0.00 | 0.00 | 0.00 | 40 | 1012.3 |
| 20260905180040 | 37 | 315 | 3.2 | 12.9 | 0.00 | 0.00 | 0.00 | 39 | 1012.4 |
| 20260905174638 | 36 | 252 | 1.6 | 4.8 | 0.00 | 0.00 | 0.00 | 45 | 1012.7 |
| 20260905173042 | 36 | 68 | 0.0 | 9.7 | 0.00 | 0.00 | 0.00 | 43 | 1012.7 |
| 20260905171536 | 37 | 347 | 1.6 | 16.1 | 0.00 | 0.00 | 0.00 | 44 | 1012.7 |
| 20260905170037 | 36 | 316 | 3.2 | 9.7 | 0.00 | 0.00 | 0.00 | 45 | 1013.1 |
| 20260905164531 | 36 | 252 | 6.4 | 11.3 | 0.00 | 0.00 | 0.00 | 45 | 1013.2 |
| 20260905163030 | 36 | 293 | 8.0 | 16.1 | 0.00 | 0.00 | 0.00 | 46 | 1013.3 |
| 20260905161529 | 36 | 266 | 3.2 | 8.0 | 0.00 | 0.00 | 0.00 | 45 | 1013.4 |
| 20260905160029 | 35 | 223 | 0.0 | 6.4 | 0.00 | 0.00 | 0.00 | 49 | 1013.4 |